GW5674 Weather Reports


time (UTC)temp
F
wind
direction
speed
knots
gust
knots
rain 1hr
in
rain 24hr
in
rain mn
in
humidity
%
barometer
mb
20260505004302 72 203 0.0 0.0 0.00 0.00 0.00 64 1013.5
20260505002802 75 203 0.9 0.0 0.00 0.00 0.00 56 1013.5
20260505001302 74 225 0.9 0.0 0.00 0.00 0.00 58 1013.5
20260504235802 76 180 1.7 0.0 0.00 0.00 0.00 53 1013.9
20260504234302 76 338 0.9 0.0 0.00 0.00 0.00 53 1013.9
20260504232802 77 158 1.7 0.0 0.00 0.00 0.00 51 1014.2
20260504231302 78 248 1.7 0.0 0.00 0.00 0.00 48 1014.2
20260504225802 79 203 0.9 0.0 0.00 0.00 0.00 50 1014.6
20260504224302 79 113 1.7 0.0 0.00 0.00 0.00 46 1014.6
20260504222803 80 203 1.7 0.0 0.00 0.00 0.00 47 1014.9
20260504221302 80 203 6.1 0.0 0.00 0.00 0.00 46 1014.9
20260504215804 80 203 3.5 0.0 0.00 0.00 0.00 45 1014.9
20260504214307 81 203 3.5 0.0 0.00 0.00 0.00 45 1015.2
20260504213305 80 248 1.7 0.0 0.00 0.00 0.00 46 1015.2
20260504212303 80 203 4.3 0.0 0.00 0.00 0.00 45 1015.6
20260504205802 80 225 3.5 0.0 0.00 0.00 0.00 44 1015.9
20260504204307 80 203 2.6 0.0 0.00 0.00 0.00 43 1015.9
20260504203302 81 225 4.3 0.0 0.00 0.00 0.00 46 1015.9
20260504201805 81 225 2.6 0.0 0.00 0.00 0.00 45 1016.6
20260504200803 81 135 4.3 0.0 0.00 0.00 0.00 44 1016.6
20260504195304 80 113 5.2 0.0 0.00 0.00 0.00 45 1016.9
20260504193803 80 180 6.1 0.0 0.00 0.00 0.00 43 1017.3
20260504192304 79 203 1.7 0.0 0.00 0.00 0.00 43 1017.3
20260504185304 79 135 1.7 0.0 0.00 0.00 0.00 41 1017.6
20260504183802 79 225 5.2 0.0 0.00 0.00 0.00 42 1017.9
20260504182304 79 90 3.5 0.0 0.00 0.00 0.00 41 1017.6
20260504180802 79 203 2.6 0.0 0.00 0.00 0.00 45 1017.9
20260504173802 78 203 6.1 0.0 0.00 0.00 0.00 41 1018.6
20260504170802 78 158 3.5 0.0 0.00 0.00 0.00 42 1018.6
20260504150801 73 90 2.6 0.0 0.00 0.00 0.00 55 1019.0
20260504141302 70 203 1.7 0.0 0.00 0.00 0.00 65 1019.6
20260504050307 55 203 0.0 0.0 0.00 0.00 0.00 90 1020.0
20260504045307 55 203 0.0 0.0 0.00 0.00 0.00 88 1020.3
20260504042802 55 203 0.0 0.0 0.00 0.00 0.00 87 1020.3
20260504041307 56 203 0.0 0.0 0.00 0.00 0.00 87 1020.3
20260504035802 56 203 0.0 0.0 0.00 0.00 0.00 88 1020.3
20260504034303 57 203 0.0 0.0 0.00 0.00 0.00 86 1020.3
20260504032802 57 203 0.0 0.0 0.00 0.00 0.00 86 1020.3
20260504030802 58 203 0.0 0.0 0.00 0.00 0.00 85 1020.3
20260504024802 58 203 0.0 0.0 0.00 0.00 0.00 83 1020.3
20260504022803 59 203 0.0 0.0 0.00 0.00 0.00 82 1020.0
20260504021802 59 203 0.9 0.0 0.00 0.00 0.00 80 1020.0
20260504020303 60 225 0.0 0.0 0.00 0.00 0.00 79 1019.6
20260504014802 61 203 0.0 0.0 0.00 0.00 0.00 77 1019.6
20260504013302 62 203 0.0 0.0 0.00 0.00 0.00 76 1019.6
20260504011803 64 203 0.0 0.0 0.00 0.00 0.00 71 1019.3